Погода в Светловодске

Погода в Светловодске : погода сейчас, прогноз погоды и архив. Всё, что Вы хотите узнать о погоде в Светловодске!

Хотите узнать прогноз погоды в Светловодске? Тогда Вам сюда: Погода в Светловодске

Поиск расширенной информации на нашем сайте:

Другие новости

Новости СМИ2

Главная страница сайта

Новости сайта

03.07.2017

Напоминаем, что на нашем специализированном сайте Метеоцентр.Азия вы можете получить высокодетализированные автоматические прогнозы погоды по пунктам России, СНГ и мира в авиационном формате (включающие направление и скорость ветра, видимость, явления погоды, количество и форму облачности, нижнюю и верхнюю границу облачности).


Погода в Светловодске - сегодня

Время (UTC), дата Ветер
(°,м/с) 
Видим.   Явления Облачность Т
(°С)
Тd
(°С)
f(%) Тe
(°С)
Pmin
(гПа)
dP
(гПа)
Po
(мм)
O2
(г/м3)
Тmin Tmax R s Состояние
почвы
15 14.02.18 100 (В) 10 км    10/10 630 м 
[Sc]
-2 -7 69 -3  1023  0.3  759  309           
18 14.02.18 120 (ЮВ) 11000 м    10/10 570 м 
[Sc]
-2.1 -6.8 70 -5  1023.7  0.7  760  309    -1.5  0.3     
00 15.02.18 120 (ЮВ) 11000 м    10/10 420 м 
[St]
-1.8 -4.9 79 -3  1024.3  0.3  760  309           
03 15.02.18 100 (В) 11000 м    10/10 330 м 
[St]
-1.9 -4 86 -4  1024.7  0.4  760  309           
06 15.02.18 110 (В) 4000 м  дымка  10/10 660 м 
[Frnb]
-1.6 -3.3 88 -4  1025.9  1.2  761  309  -2.1      <0.5  равномерный
сухой снег
100% 
09 15.02.18 090 (В) 10 км    10/10 540 м 
[St]
-0.4 -2.9 83 -3  1026.5  0.7  762  308           
12 15.02.18 090 (В) 10 км    10/10 900 м 
[Sc]
+0.5 -4.2 71 -2  1026.2  -0.3  761  307           
15 15.02.18 100 (В) 10 км    10/10 750 м 
[Sc]
-0.2 -4.3 74 -3  1027  0.9  762  308          затоплена
водой 
18 15.02.18 090 (В) 4200 м  слаб. снег  10/10 400 м 
[Frnb|Ns]
-0.6 -2.4 88 -1  1027.8  0.6  763  308    +0.8  0.3     
21 15.02.18 070 (В) 3700 м  слаб. снег  10/10 360 м 
[Frnb|Ns]
-0.8 -2.1 91 -2  1027.7  -0.1  763  308           
00 16.02.18 090 (В) 3500 м  слаб. снег  10/10 330 м 
[Frnb|Ns]
-0.8 -1.5 95 -2  1027.9  0.2  763  308         
03 16.02.18 100 (В) 2800 м  дымка{снег}  10/10 300 м 
[St]
-0.6 -1.3 95 1027.9  763  308           
06 16.02.18 100 (В) 0500 м  туман{снег}  ?/?  
+0 -0.6 96 +1  1028.2  0.4  763  308  -0.8    равномерный
сухой снег
100% 
09 16.02.18 120 (ЮВ) 0500 м  слаб. морось{туман}  ?/?  
+0.7 +0.1 96 1028.5  0.3  763  307           
12 16.02.18 080 (В) 1000 м  дымка{морось, туман}  10/10 210 м 
[St]
+1 +0.2 94 +2  1027.5  -1  762  306      0.0     
15 16.02.18 130 (ЮВ) 0500 м  туман{морось}  ?/?  
+0.6 +0 96 1026.9  -0.6  762  306           
18 16.02.18 130 (ЮВ) 0700 м  туман{морось}  ?/?  
+0.4 -0.2 96 1026.9  762  307    +1.5  0.0     
21 16.02.18 150 (ЮВ) 0900 м  туман  ?/?  
+0.6 +0 96 +1  1026.4  -0.5  762  306           
00 17.02.18 150 (ЮВ) 0600 м  слаб. морось{туман}  ?/?  
+0.5 +0.2 98 1025.3  -1.1  761  306      0.0     
03 17.02.18 160 (Ю) 0700 м  слаб. морось{туман}  ?/?  
+0.5 +0.2 98 1024.5  -0.8  760  306           
06 17.02.18 160 (Ю) 0200 м  слаб. снег{морось}  ?/?  
+0.3 +0 98 +1  1024.1  -0.4  760  306  +0.3    0.3  равномерный
сухой снег
100% 
09 17.02.18 160 (Ю) 2000 м  слаб. снег{дождь}  10/10 270 м 
[Frnb|Ns]
+1.4 +0.9 96 +2  1023.5  -0.5  760  304           
12 17.02.18 300 (СЗ) 2000 м  снег{дождь}  10/10 300 м 
[Frnb|Ns]
+0.4 -0.2 96 1023.1  -0.5  759  305         
15 17.02.18 310 (СЗ) 1000 м  дымка{снег}  10/10 400 м 
[St]
+0.4 -0.2 96 -1  1022.7  -0.4  759  305           
18 17.02.18 320 (СЗ) 4400 м  дымка{снег}  8/0 средняя 
[Ac und]
-0.2 -1.4 92 -1  1023.5  0.8  759  306    +1.8     
Время (UTC), дата Ветер
(°,м/с) 
Видим.   Явления Облачность Т
(°С)
Тd
(°С)
f(%) Тe
(°С)
Pmin
(гПа)
dP
(гПа)
Po
(мм)
O2
(г/м3)
Тmin Tmax R s Состояние
почвы

Для получения пояснительной информации подведите курсор к названию столбца.

ПОГОДА в Светловодске - архив

Всё, что Вы хотите узнать о погоде в Светловодске - удобно и подробно!

Выберите нужную дату (начиная с 1 января 2015* года) и нажмите кнопку "Найти".
Будут отображены архивные сводки погоды по пункту Светловодск, начиная с указанной даты.


Отображать данные в формате CSV (для использования в таблицах Excel)


Внимание! Наш архив погоды предназначен исключительно для личного некоммерческого использования в познавательных целях. Если Вам необходимы официальные справки о состоянии погоды (для производственных, юридических, коммерческих и т.п. целей), обращайтесь в органы Росгидромета.

*Примечание: данная дата относится к архиву по метеостанциям СССР (Россия, СНГ, Балтия).
Архив по метеостанциям Зарубежной Европы и Азии (кроме Китая) хранится 10 дней, по другим регионам земного шара (Китай, Африка, Америка, Австралия, Океания) - 1 день.

Светловодск - район местоположения метеостанции


Название, широта, долгота, высота метеостанции:
Светловодск 49.1°ш. 33.2°д. 84 м над ур. моря [Украина]

Дополнительная информация

В oтличие oт бoльшинства пoгoдных сайтoв мы публикуем пoдрoбную метеoинфoрмацию в детальнoм прoфессиoнальнoм фoрмате.

Характеристики температуры и влажнoсти вoздуха измеряются на высoте 2 м в тени вдали oт зданий и деревьев.
Скoрoсть ветра измеряется на высoте 10 м (на урoвне рoста челoвека скoрoсть ветра ниже в 1.5-2 раза). Если метеoстанция нахoдится в гoрoде или в лесу, тo скoрoсть ветра занижена на 2-4 м/с пo сравнению с oткрытым местoм. Скoрoсть ветра над акватoриями крупных рек и oзёр, а также на вершинах хoлмoв на 2-5 м/с выше, чем в oбычных услoвиях.
Атмoсфернoе давление в разных тoчках местнoсти мoжет значительнo oтличаться oт давления на метеoстанции, в зависимoсти oт услoвий рельефа (при пoдъёме на 10 м давление пoнижается примернo на 1 мм рт.ст.).